Location: Antioch
(38.0049°N, 121.8058°W)
Time: 02:35:14
(UTC+00:00)

Cosmos 2227 Rocket - Pass Details

Date: 11 February 2026
Orbit: 836 x 845 km, 71.0° (Epoch: 7 March)

Event Time Altitude Azimuth Distance (km) Brightness Sun altitude
Exits shadow 13:02:22 - 344° (NNW) 2,858 4.8 -24.0°
Reaches altitude 10° 13:03:24 10° 347° (NNW) 2,471 4.5 -23.8°
Maximum altitude 13:08:58 55° 64° (ENE) 1,013 2.8 -22.7°
Drops below altitude 10° 13:14:30 10° 142° (SE) 2,458 5.1 -21.6°
Sets 13:16:59 0° 147° (SSE) 3,390 5.8 -21.1°
